Flag for Guinea-Bissau Weather past 2 weeks in Bissau, Guinea-Bissau

Now
75 °F

Clear.


Feels Like: 74 °F
Forecast: 76 / 94 °F
Wind: No wind

Location: Bissau Aeroport

Current Time: May 24, 2015 at 7:06:46 AM

Latest Report: May 24, 2015 at 6:00 AM


Visibility: 4 mi

Pressure: 29.86 "Hg

Humidity: 94%

Dew point: 73 °F

Location of BissauLocation

Historic Weather in Bissau — Graph

°F

Bissau temperature yesterday

Maximum temperature yesterday: 93 °F (at 1:00 PM)
Minimum temperature yesterday: 75 °F (at 6:00 AM)
Average temperature yesterday: 85 °F

Past Weeks' High & Low Weather Summary

 TemperatureHumidityPressure
High97 °F (May 13, 3:00 PM)100% (May 9, 6:00 AM)30.01 "Hg (May 9, 6:00 AM)
Low75 °F (May 9, 6:00 AM)24% (May 23, 12:00 PM)29.77 "Hg (May 11, 5:00 PM)
Average85 °F68%29.88 "Hg
* Reported May 9 6:00 AM — May 24 6:00 AM, Bissau, Weather by CustomWeather, © 2015

Note: Actual official high and low records may vary slightly from our data, if they occured in-between our weather recording intervals... More about our weather records

Advertising

Bissau weather history for previous 24 hours

 ConditionsComfort  
Time TempWeatherWind HumidityBarometerVisibility
6:00 AM
Sun, May 24
75 °FClear.No wind94%29.86 "Hg4 mi
4:00 AM75 °FClear.No wind94%29.86 "Hg5 mi
3:00 AM75 °FClear.No wind94%29.89 "Hg5 mi
2:00 AM77 °FClear.No wind89%29.89 "Hg5 mi
7:00 PM
Sat, May 23
88 °FSunny.7 mph59%29.86 "Hg10 mi
6:00 PM90 °FSunny.12 mph46%29.86 "Hg10 mi
5:00 PM91 °FSunny.14 mph41%29.86 "Hg10 mi
4:00 PM93 °FPassing clouds.12 mph36%29.86 "HgN/A
3:00 PM93 °FPassing clouds.12 mph34%29.89 "HgN/A
2:00 PM91 °FPassing clouds.10 mph41%29.89 "HgN/A
1:00 PM93 °FPassing clouds.5 mph26%29.95 "HgN/A
12:00 PM91 °FPassing clouds.3 mph24%29.95 "HgN/A
11:00 AM88 °FClear.3 mph46%29.98 "Hg6 mi
10:00 AM82 °FClear.5 mph66%29.98 "Hg5 mi
9:00 AM79 °FClear.6 mph84%29.98 "Hg4 mi
8:00 AM75 °FFog.3 mph100%29.95 "Hg2 mi
7:00 AM75 °FClear.3 mph94%29.95 "Hg4 mi
Weather by CustomWeather, © 2015

See weather overviewHow to use our weather pages